Change the Weather History Date:

Tuesday, February 19, 2013

  Actual Average Record
Temperature  
Mean Temperature 66 °F -  
Max Temperature 77 °F 75 °F 82 °F (2012)
Min Temperature 55 °F 64 °F 53 °F (2015)
Cooling Degree Days 1    
Growing Degree Days 16 (Base 50)    
Moisture  
Dew Point 61 °F    
Average Humidity 66    
Maximum Humidity 83    
Minimum Humidity 49    
Precipitation  
Precipitation 0.00 in - - ()
Sea Level Pressure  
Sea Level Pressure 30.15 in    
Wind  
Wind Speed 5 mph ()    
Max Wind Speed 12 mph    
Max Gust Speed -    
Visibility 7.1 miles    
Events      
Averages and records for this station are not official NWS values.
T = Trace of Precipitation, MM = Missing Value Source: Averaged Metar Reports

Daily Weather History Graph

Daily Weather History Graph

Search for Another Location

Airport or City:

Trip Planner

Search our weather history database for the weather conditions in past years. The results will help you decide how hot, cold, wet, or windy it might be!

Date:

Astronomy

Feb. 19, 2013 Rise Set
Actual Time 6:47 AM EST 6:10 PM EST
Civil Twilight 6:23 AM EST 6:33 PM EST
Nautical Twilight 5:56 AM EST 7:00 PM EST
Astronomical Twilight 5:29 AM EST 7:27 PM EST
Moon 12:56 PM EST (2/19) 2:01 AM EST (2/19)
Length of Visible Light 12h 09m
Length of Day
11h 22m
Waxing Gibbous, 67% of the Moon is Illuminated
Feb 19
Waxing Gibbous
Feb 25
Full
Mar 4
Last Quarter
Mar 11
New
Mar 19
First Quarter

Hourly Weather History & Observations

Time (EST) Temp. Dew Point Humidity Pressure Visibility Wind Dir Wind Speed Gust Speed Precip Events Conditions
7:00 AM 63 °F 57 °F 75% 30.18 in 12 mi Calm Calm - -   Partly Cloudy
7:00 AM 62.6 °F 57.2 °F 82% 30.18 in 6.2 mi Calm Calm - N/A   Partly Cloudy
8:00 AM 71.6 °F 60.8 °F 69% 30.19 in 6.2 mi ESE 3.5 mph - N/A   Scattered Clouds
9:00 AM 73.4 °F 57.2 °F 57% 30.19 in 6.2 mi SSE 5.8 mph - N/A   Mostly Cloudy
10:00 AM 74 °F 59 °F 49% 30.19 in 12 mi SSE 8.1 mph - -   Mostly Cloudy
10:00 AM 73.4 °F 59.0 °F 61% 30.19 in 6.2 mi SSE 8.1 mph - N/A   Mostly Cloudy
11:00 AM 77.0 °F 60.8 °F 57% 30.18 in 6.2 mi SSE 8.1 mph - N/A   Scattered Clouds
12:00 PM 77.0 °F 62.6 °F 61% 30.17 in 6.2 mi SE 11.5 mph - N/A   Mostly Cloudy
1:00 PM 77 °F 63 °F 53% 30.16 in 12 mi South 10.4 mph - -   Mostly Cloudy
1:00 PM 77.0 °F 62.6 °F 61% 30.16 in 6.2 mi South 10.4 mph - N/A   Mostly Cloudy
2:00 PM 77.0 °F 62.6 °F 61% 30.13 in 6.2 mi SSW 10.4 mph - N/A   Mostly Cloudy
3:00 PM 77.0 °F 64.4 °F 65% 30.12 in 6.2 mi South 10.4 mph - N/A   Scattered Clouds
4:00 PM 77.0 °F 62.6 °F 61% 30.11 in 6.2 mi South 11.5 mph - N/A   Scattered Clouds
5:00 PM 75.2 °F 62.6 °F 65% 30.11 in 6.2 mi South 5.8 mph - N/A   Scattered Clouds
6:00 PM 73.4 °F 62.6 °F 69% 30.10 in 6.2 mi SSE 5.8 mph - N/A   Partly Cloudy
7:00 PM 71.6 °F 62.6 °F 73% 30.11 in 6.2 mi South 3.5 mph - N/A   Partly Cloudy
8:00 PM 71.6 °F 62.6 °F 73% 30.11 in 6.2 mi Calm Calm - N/A   Partly Cloudy
9:00 PM 69.8 °F 62.6 °F 78% 30.13 in 6.2 mi Calm Calm - N/A   Partly Cloudy
10:00 PM 69.8 °F 64.4 °F 83% 30.12 in 6.2 mi Calm Calm - N/A   Partly Cloudy